Tracking 19149 objects as of 20-Apr-2018
HD Live streaming from Space Station
objects crossing your sky now

OAO 1

Track OAO 1 now!
10-day predictions
OAO 1 is classified as:


NORAD ID: 2142
Int'l Code: 1966-031A
Perigee: 780.8 km
Apogee: 791.1 km
Inclination: 35.0 °
Period: 100.4 minutes
Semi major axis: 7156 km
RCS: 10.9 m2 (large)
Launch date: April 8, 1966
Source: United States (US)
Launch site: AIR FORCE EASTERN TEST RANGE (AFETR)
aabbcc
Your satellite tracking list
Your tracking list is empty




NASA's NSSDC Master Catalog

Two Line Element Set (TLE):
1  2142U 66031A   18109.26852501 -.00000025 +00000-0 -20446-5 0  9993
2  2142 035.0464 050.2582 0007154 333.4539 026.5781 14.33877515722938
Source of the keplerian elements: AFSPC